Location: Wawayanda State Park
(41.1833°N, 74.4333°W)
Time: 05:27:04
(UTC-04:00)

RESURS DK-1 - Visible Passes

Search period start: 05 July 2015 00:00
Search period end: 15 July 2015 00:00
Orbit: 558 x 566 km, 69.9° (Epoch: 05 July)

Date Brightness Start Highest point End Pass type
(mag) Time Alt. Az. Time Alt. Az. Time Alt. Az.
05 Jul 4.9 01:27:46 10° WNW 01:28:19 12° WNW 01:28:19 12° WNW visible
05 Jul 2.5 23:47:28 10° NNW 23:51:28 66° NE 23:51:28 66° NE visible
06 Jul 4.9 22:11:14 10° NE 22:12:04 11° NE 22:13:03 10° ENE visible
06 Jul 2.4 23:46:41 10° NNW 23:50:36 78° NW 23:50:36 78° NW visible
07 Jul 4.7 22:09:21 10° NNE 22:11:29 14° NE 22:13:45 10° E visible
07 Jul 2.7 23:45:57 10° NNW 23:49:46 60° W 23:49:46 60° W visible
08 Jul 4.4 22:08:02 10° N 22:10:53 18° NE 22:13:01 13° E visible
08 Jul 3.1 23:45:17 10° NW 23:48:58 43° W 23:48:58 43° W visible
09 Jul 4.0 22:06:54 10° N 22:10:15 23° NE 22:12:15 17° E visible
09 Jul 3.6 23:44:42 10° NW 23:48:12 31° WSW 23:48:12 31° WSW visible
10 Jul 3.6 22:05:52 10° N 22:09:35 31° ENE 22:11:31 21° ESE visible
10 Jul 4.1 23:44:14 10° NW 23:47:28 23° WSW 23:47:28 23° WSW visible
11 Jul 3.1 22:04:55 10° NNW 22:08:53 41° ENE 22:10:49 25° ESE visible
11 Jul 4.5 23:43:58 10° WNW 23:46:42 17° WSW 23:46:47 17° WSW visible
12 Jul 2.6 22:04:02 10° NNW 22:08:10 57° ENE 22:10:11 28° SE visible
12 Jul 4.9 23:44:09 10° W 23:45:49 12° WSW 23:46:08 12° WSW visible
13 Jul 2.3 22:03:12 10° NNW 22:07:23 81° ENE 22:09:34 27° SSE visible
14 Jul 2.5 22:02:25 10° NNW 22:06:36 73° WSW 22:09:01 24° SSE visible
